User: anonymous   Login
Location: Caltech
(34.1382°N, 118.1253°W)
Time: 02:12:42
(UTC-08:00)
Language:

Cosmos 1975 - Orbit

View from above orbital plane
View from above orbital plane
View from above satellite
View from above satellite

Ground track
Ground track

The orbit data is extracted from the following two-line orbital elements,

1 19573U 88093A   16038.17071202  .00001085  00000-0  77526-4 0  9996
2 19573  82.5204 105.1473 0014728 180.5718 179.5494 15.03422554485266
Epoch (UTC): 07 February 2016 04:05:49
Eccentricity: 0.0014728
inclination: 82.5204°
perigee height: 546 km
apogee height: 566 km
right ascension of ascending node: 105.1473°
argument of perigee: 180.5718°
revolutions per day: 15.03422554
mean anomaly at epoch: 179.5494°
orbit number at epoch: 48526

The dashed part of the orbit path shows where the satellite is in the earth's shadow,  

DLR